sat.trackr.live / text

‹ back to catalog

STARLINK-6223

NORAD 57057 · 2023-088K

PAYLOAD ACTIVE UNKNOWN

§ Identity

Operator
Country
US
Launch date
2023-06-22
Launch site
AFWTR
Launch vehicle
Mass (kg)
RCS (m²)

Purposes: comms

External: N2YO · Heavens-Above · Gunter

§ Orbital elements

Epoch: 2026-05-25T02:48:38.204640Z

Period
94.27 min
Inclination
43.0049°
Eccentricity
0.0001343
Mean motion
15.27578640 rev/d
Perigee alt
482.1 km
Apogee alt
484.0 km
Semi-major
6,861.2 km
B*
2.1761e-5
RAAN
38.7861°
Arg perigee
268.4209°
Mean anomaly
91.6489°
Rev number
16,202

§ Raw data

STARLINK-62231 57057U 23088K   26145.11710885  .00000337  00000+0  21761-4 0  99972 57057  43.0049  38.7861 0001343 268.4209  91.6489 15.27578640162024

JSON: /api/v1/satellites/57057 · /tle

For live sub-satellite position, see the globe view (requires WebGL).

§ Visibility from observer

Set your observer location to see the next 7 days of passes ≥ 10°. The values pass through the URL so the page stays shareable.

No JS? Fill the form by hand. The geolocation button needs JavaScript.